Погода в Пистое

Италия     43°55′39″N   10°55′07″E
темп.,
°C
ветер,
м/с
пор.,
м/с
влажн.,
%
обл.,
%
осадки,
мм/ч
давл.,
гПа
погр.,
м
11 апреля, вс
вс1123:00+7ююз25100100 5.9 1021341
02:00+7зсз0197100 13.9 101988
05:00+7юв1199100 6.3 101778
08:00+6ю15100100 9.1 1018361
11:00+7ю2599100 2.6 1018413
14:00+8ю14100100 8.7 1018187
17:00+9ююз14100100 2.7 1018349
20:00+9юв13100100 5.3 1019248
12 апреля, пн
пн1223:00+8ю11100100 3.1 1020101
02:00+8вюв11100100 5.9 101997
05:00+8ююв13100100 4.7 1017288
08:00+8ююв14100100 8.6 1017299
11:00+9ююв27100100 9.3 1017579
14:00+10ю3898100 13.3 1015845
17:00+9ююз37100100 8.8 1013699
20:00+7з0197100 25.1 101586
13 апреля, вт
вт1323:00+6ю119981 0.2 1015102
02:00+6св119467 0.3 101471
05:00+5ссв2395100 0.1 1013136
08:00+5ссв2495100 3.1 1015482
11:00+5с249069 4.3 1016416
14:00+6с3776100 4.8 1017843
17:00+4с4879100 0.4 1018707
20:00+3с389199 0.4 1021617
14 апреля, ср
ср1423:00+3ссв3889100 0.1 1023979
02:00+3ссв259054 0.3 1023370
05:00+1с349062 0.0 102382
08:00+3с237774 0.0 1023130
11:00+8всв225744 0.1 10221277
14:00+10св125894 1.1 10211385
17:00+7с1273100 1.4 1020859
20:00+5вюв0092100 3.2 102255
15 апреля, чт
чт1523:00+3с21979 0.2 102325
02:00+1с33861 0.2 102249
05:00+1с34821 0.0 102257
08:00+3ссв248330 0.0 1022143
11:00+9всв225097 0.0 10211344
14:00+11св2242100 0.2 10202084
17:00+8ссв346847 0.9 1020907
20:00+4ссв3489100 1.4 102173